カタログに戻る

STARLINK-36243

運用中通信VLEO
NORAD 67077·PAYLOAD·🇺🇸 United States

打ち上げ Dec 14, 2025 から Vandenberg Space Force Base

Loading…

次のパス (今後24時間)

TLE

最新Source: CelesTrak SupGP

元期: Sep 15, 2026, 02:56 UTC

1 67077C 25298C   26258.12270833 -.00049526  00000+0 -41494-2 0  2581
2 67077  69.9994 257.0044 0004068 265.1013 259.3011 14.98362775    17

AllMySatでSTARLINK-36243をリアルタイム追跡

Download on the App Store